TimeCST,TemperatureF,Dew PointF,Humidity,Sea Level PressureIn,VisibilityMPH,Wind Direction,Wind SpeedMPH,Gust SpeedMPH,PrecipitationIn,Events,Conditions,WindDirDegrees,DateUTC
12:08 AM,0.5,-4.0,81,30.28,10.0,NNW,5.8,-,N/A,,Clear,330,2013-01-26 06:08:00
12:29 AM,1.2,-3.6,80,30.28,10.0,NNW,6.9,-,N/A,,Clear,340,2013-01-26 06:29:00
12:48 AM,1.4,-3.6,79,30.28,10.0,NW,3.5,-,N/A,,Clear,320,2013-01-26 06:48:00
1:08 AM,0.3,-4.4,81,30.28,10.0,North,3.5,-,N/A,,Clear,350,2013-01-26 07:08:00
1:28 AM,0.7,-4.4,79,30.28,10.0,North,3.5,-,N/A,,Clear,360,2013-01-26 07:28:00
1:48 AM,0.3,-4.4,81,30.29,10.0,NNW,3.5,-,N/A,,Clear,340,2013-01-26 07:48:00
1:55 AM,0.3,-4.4,81,30.29,10.0,North,3.5,-,N/A,,Clear,350,2013-01-26 07:55:00
2:25 AM,-0.4,-5.8,78,30.29,10.0,Calm,Calm,-,N/A,,Clear,0,2013-01-26 08:25:00
2:45 AM,-0.4,-5.8,78,30.29,10.0,Calm,Calm,-,N/A,,Clear,0,2013-01-26 08:45:00
3:05 AM,-0.4,-4.0,85,30.28,10.0,Calm,Calm,-,N/A,,Clear,0,2013-01-26 09:05:00
3:31 AM,-0.9,-4.9,83,30.28,10.0,Calm,Calm,-,N/A,,Clear,0,2013-01-26 09:31:00
3:48 AM,-0.9,-4.7,84,30.28,10.0,Calm,Calm,-,N/A,,Clear,0,2013-01-26 09:48:00
4:09 AM,-2.6,-6.0,85,30.28,10.0,Calm,Calm,-,N/A,,Clear,0,2013-01-26 10:09:00
4:28 AM,-0.9,-4.4,85,30.27,10.0,Calm,Calm,-,N/A,,Clear,0,2013-01-26 10:28:00
4:48 AM,-0.9,-4.4,85,30.28,10.0,Calm,Calm,-,N/A,,Clear,0,2013-01-26 10:48:00
5:09 AM,-2.2,-5.8,85,30.28,10.0,Calm,Calm,-,N/A,,Clear,0,2013-01-26 11:09:00
5:28 AM,-3.1,-6.2,87,30.28,10.0,Calm,Calm,-,N/A,,Clear,0,2013-01-26 11:28:00
5:48 AM,-0.9,-4.4,85,30.28,10.0,Calm,Calm,-,N/A,,Clear,0,2013-01-26 11:48:00
6:09 AM,-0.9,-4.4,85,30.29,10.0,Calm,Calm,-,N/A,,Clear,0,2013-01-26 12:09:00
6:28 AM,-2.0,-5.6,85,30.28,10.0,Calm,Calm,-,N/A,,Clear,0,2013-01-26 12:28:00
6:49 AM,-0.9,-4.2,86,30.27,10.0,Calm,Calm,-,N/A,,Clear,0,2013-01-26 12:49:00
7:08 AM,-0.4,-4.2,84,30.27,10.0,Calm,Calm,-,N/A,,Clear,0,2013-01-26 13:08:00
7:28 AM,-0.9,-4.5,85,30.28,10.0,Calm,Calm,-,N/A,,Clear,0,2013-01-26 13:28:00
7:48 AM,-0.9,-4.2,86,30.28,10.0,ESE,3.5,-,N/A,,Clear,120,2013-01-26 13:48:00
8:08 AM,0.3,-3.5,84,30.29,10.0,Calm,Calm,-,N/A,,Clear,0,2013-01-26 14:08:00
8:28 AM,1.6,-2.2,84,30.30,10.0,Calm,Calm,-,N/A,,Clear,0,2013-01-26 14:28:00
8:48 AM,3.0,-1.3,82,30.29,10.0,SE,5.8,-,N/A,,Clear,140,2013-01-26 14:48:00
9:08 AM,4.3,-0.2,82,30.27,10.0,SE,8.1,-,N/A,,Clear,130,2013-01-26 15:08:00
9:28 AM,6.6,2.1,82,30.27,10.0,ESE,8.1,-,N/A,,Clear,120,2013-01-26 15:28:00
9:48 AM,8.1,3.4,81,30.26,10.0,ESE,11.5,-,N/A,,Clear,120,2013-01-26 15:48:00
10:08 AM,9.1,4.3,81,30.28,10.0,SE,10.4,-,N/A,,Clear,130,2013-01-26 16:08:00
10:47 AM,10.4,4.8,78,30.26,10.0,SE,13.8,-,N/A,,Clear,140,2013-01-26 16:47:00
11:09 AM,11.7,5.9,78,30.25,10.0,SE,10.4,-,N/A,,Clear,140,2013-01-26 17:09:00
11:28 AM,11.8,6.1,78,30.24,10.0,SE,11.5,-,N/A,,Clear,130,2013-01-26 17:28:00
11:48 AM,14.0,8.4,78,30.25,10.0,SE,9.2,-,N/A,,Clear,130,2013-01-26 17:48:00
12:08 PM,14.2,8.1,77,30.23,10.0,SE,9.2,-,N/A,,Scattered Clouds,130,2013-01-26 18:08:00
12:29 PM,16.7,9.7,74,30.21,10.0,SE,12.7,-,N/A,,Scattered Clouds,130,2013-01-26 18:29:00
12:49 PM,16.7,9.5,73,30.19,10.0,ESE,12.7,17.3,N/A,,Mostly Cloudy,120,2013-01-26 18:49:00
1:06 PM,18.0,10.0,71,30.18,10.0,SE,12.7,-,N/A,,Mostly Cloudy,130,2013-01-26 19:06:00
1:30 PM,19.4,10.4,68,30.17,10.0,SE,11.5,-,N/A,,Scattered Clouds,130,2013-01-26 19:30:00
1:45 PM,19.4,10.4,68,30.17,10.0,SE,11.5,-,N/A,,Clear,130,2013-01-26 19:45:00
2:05 PM,19.4,12.2,74,30.15,10.0,SE,15.0,-,N/A,,Clear,130,2013-01-26 20:05:00
2:25 PM,21.2,12.2,68,30.14,10.0,ESE,15.0,-,N/A,,Clear,120,2013-01-26 20:25:00
2:47 PM,23.2,13.6,67,30.14,10.0,ESE,15.0,-,N/A,,Scattered Clouds,120,2013-01-26 20:47:00
3:09 PM,22.6,13.3,67,30.13,10.0,ESE,11.5,-,N/A,,Scattered Clouds,110,2013-01-26 21:09:00
3:28 PM,23.0,14.0,68,30.12,10.0,ESE,13.8,-,N/A,,Clear,120,2013-01-26 21:28:00
3:35 PM,23.0,13.3,66,30.12,10.0,ESE,16.1,-,N/A,,Clear,120,2013-01-26 21:35:00
4:05 PM,24.8,15.8,69,30.13,10.0,SE,9.2,-,N/A,,Mostly Cloudy,140,2013-01-26 22:05:00
4:25 PM,24.8,15.8,69,30.12,10.0,SE,9.2,-,N/A,,Mostly Cloudy,130,2013-01-26 22:25:00
4:45 PM,24.8,15.8,69,30.12,10.0,SE,8.1,-,N/A,,Overcast,130,2013-01-26 22:45:00
5:05 PM,24.8,15.8,69,30.11,10.0,SE,8.1,-,N/A,,Overcast,130,2013-01-26 23:05:00
5:30 PM,24.8,14.0,64,30.11,10.0,SE,11.5,-,N/A,,Overcast,140,2013-01-26 23:30:00
5:45 PM,24.8,15.8,69,30.10,10.0,SE,11.5,-,N/A,,Overcast,140,2013-01-26 23:45:00
6:05 PM,23.0,14.0,68,30.09,10.0,SE,12.7,-,N/A,,Overcast,140,2013-01-27 00:05:00
6:30 PM,23.0,14.0,68,30.09,10.0,SE,12.7,-,N/A,,Overcast,140,2013-01-27 00:30:00
6:50 PM,23.0,14.0,68,30.09,10.0,SE,10.4,-,N/A,,Overcast,130,2013-01-27 00:50:00
7:05 PM,23.0,14.0,68,30.09,10.0,SE,10.4,-,N/A,,Overcast,130,2013-01-27 01:05:00
7:25 PM,23.0,14.0,68,30.09,10.0,ESE,10.4,-,N/A,,Overcast,120,2013-01-27 01:25:00
7:50 PM,23.0,14.0,68,30.10,10.0,ESE,9.2,-,N/A,,Mostly Cloudy,110,2013-01-27 01:50:00
8:10 PM,21.2,14.0,74,30.09,10.0,ESE,10.4,-,N/A,,Scattered Clouds,110,2013-01-27 02:10:00
8:25 PM,21.2,14.0,74,30.08,10.0,ESE,10.4,-,N/A,,Scattered Clouds,120,2013-01-27 02:25:00
8:45 PM,21.2,14.0,74,30.08,10.0,ESE,8.1,-,N/A,,Scattered Clouds,120,2013-01-27 02:45:00
9:05 PM,21.2,14.0,74,30.07,10.0,ESE,10.4,-,N/A,,Clear,120,2013-01-27 03:05:00
9:25 PM,21.2,14.0,74,30.06,10.0,ESE,11.5,-,N/A,,Clear,110,2013-01-27 03:25:00
9:50 PM,20.3,13.8,76,30.05,10.0,ESE,10.4,-,N/A,,Clear,110,2013-01-27 03:50:00
10:08 PM,20.3,14.0,77,30.05,10.0,ESE,10.4,-,N/A,,Clear,120,2013-01-27 04:08:00
10:27 PM,21.0,14.4,75,30.05,10.0,ESE,9.2,-,N/A,,Clear,110,2013-01-27 04:27:00
10:49 PM,21.7,14.9,75,30.05,10.0,ESE,9.2,-,N/A,,Clear,110,2013-01-27 04:49:00
11:08 PM,21.7,14.9,75,30.05,10.0,ESE,9.2,-,N/A,,Clear,110,2013-01-27 05:08:00
11:29 PM,21.4,15.1,77,30.05,10.0,ESE,9.2,-,N/A,,Clear,120,2013-01-27 05:29:00
11:48 PM,21.9,15.1,75,30.04,10.0,SE,8.1,-,N/A,,Clear,130,2013-01-27 05:48:00